星链-2322 (STARLINK-2322 )

导读 | 星芒AI

STARLINK-2322 是 SpaceX Starlink 卫星互联网项目中的一颗低轨通信卫星。它属于第二代 Starlink 卫星,旨在提供更高速度、更低延迟的全球宽带服务。该卫星采用先进推进系统和激光通信技术,提升网络效率与稳定性。作为星座的一部分,STARLINK-2322 与其他卫星协同工作,为偏远地区提供互联网接入,支持民用与商业应用,推动全球数字连接。

基本信息
目录编号:
47791
目录名称:
STARLINK-2322
国际标识:
2021-018E
轨道中心:
EARTH
卫星名称:
星链-2322
卫星全名:
星链-2322 (STARLINK-2322 )
卫星状态:
在轨 (已飞行1741 天)
发射日期:
2021-03-11 UTC
国别 :
美国 (US)
星等 :
--
轨道信息
数据来源 国际轨道数据
星历时间: 2025-12-16T11:48:57+0800
19小时前
查看轨道信息
半长轴: 6925.151km
偏心率: 0.0001495
轨道倾角: 53.054°
近地点辐角 79.769°
升交点赤经 266.600°
平近点角 280.347°
近地点: 545.98km
远地点: 548.052km
周期: 95.588分钟
每日圈数: 15.064646
详细信息
固有亮度:
5
最大亮度:
2.5
卫星平台:
Starlink V1.0
覆盖范围:
全球
运营商:
太空探索技术公司
运营商所在国:
美国
制造商(研发单位):
太空探索技术公司
制造商所在国:
美国
使用方式:
暂无
卫星简介
星链(Starlink)计划是由太空探索技术公司(SpaceX)提出的一个巨型低轨卫星互联网星座项目,计划在2019年至2024年间在太空搭建由约1.2万颗卫星组成的“星链”网络,其中1584颗将部署在地球上空550千米处的近地轨道,并从2020年开始工作。该卫星仍在工作。
2D轨道图
3D轨道图
轨道高度分析图
轨道倾角分析图
轨道综合分析图
查看轨道综合分析图